Hourly Data Report for April 25, 2020

TORONTO CITY
ONTARIO
Current Station Operator: ECCC - MSC

43°40'00.000" N
79°24'00.000" W
112.50 m
6158355
71508
XTO

Download Data

Hourly Data (April 2020)
Hourly Data Report for April 25, 2020
TIME
LST
Temp Definition
°C
Dew Point Definition
°C
Rel Hum Definition
%
Precip. Amount Definition
mm

Wind Dir Definition
10's deg

Wind Spd Definition
km/h
Visibility Definition
km
Stn Press Definition
kPa
Hmdx Definition


Wind Chill Definition


Weather Definition


00:00 7.0 -6.2 38 0.0       100.20     LegendNANA
01:00 5.9 -4.0 49 0.0       100.22     LegendNANA
02:00 5.2 -3.0 55 0.0       100.24     LegendNANA
03:00 4.2 -3.0 59 0.0       100.25     LegendNANA
04:00 4.7 -2.3 60 0.0       100.30     LegendNANA
05:00 4.0 -1.9 65 0.0       100.36     LegendNANA
06:00 3.5 -1.9 68 0.0       100.44     LegendNANA
07:00 5.7 -1.5 60 0.0       100.49     LegendNANA
08:00 7.4 -2.8 48 0.0       100.53     LegendNANA
09:00 9.2 -2.9 43 0.0       100.55     LegendNANA
10:00 11.1 -2.3 39 0.0       100.51     LegendNANA
11:00 10.4 -3.8 37 0.0       100.50     LegendNANA
12:00 10.1 -3.7 38 0.0       100.53     LegendNANA
13:00 10.6 -6.3 30 0.3       100.50     LegendNANA
14:00 11.4 -11.3 19 0.3       100.44     LegendNANA
15:00 12.7 -14.3 14 0.0       100.37     LegendNANA
16:00 11.8 -15.8 13 0.4       100.31     LegendNANA
17:00 11.7 -16.8 12 0.0       100.28     LegendNANA
18:00 11.6 -17.0 12 0.0       100.26     LegendNANA
19:00 11.1 -16.6 13 0.0       100.26     LegendNANA
20:00 10.9 -16.9 13 0.0       100.23     LegendNANA
21:00 11.2 -15.2 14 0.0       100.24     LegendNANA
22:00 11.2 -13.8 16 0.0       100.23     LegendNANA
23:00 11.1 -11.2 20 0.0       100.20     LegendNANA

Notes on Data Quality.

Legend

  • E = Estimated
  • M = Missing
  • NA = Not Available*
  • [empty] = Indicates an unobserved value
Date modified: